Simultaneous Nadir Overpasses (SNOs) Predictions

Prediction of SNOs between FY3D and NOAA-19 Satellite Orbit:

Table of predicted SNOs for the next 14.0 days since TLE Epoch: 1/15/2022
Index Date (FY3D) Time (FY3D) Lat,Lon (FY3D) SZA (FY3D ) Date (NOAA-19) Time (NOAA-19) Lat,Lon (NOAA-19) SZA (NOAA-19 ) Distance(km) Time Diff (sec)
1 01/17/2022 06:46:02 77.88, 58.78 99.39 01/17/2022 06:44:49 77.89, 58.62 99.43 3.86 73
2 01/17/2022 07:36:49 -77.92,-134.13 80.56 01/17/2022 07:35:47 -77.90,-134.04 80.57 3.20 62
3 01/17/2022 08:27:34 77.90, 33.30 99.41 01/17/2022 08:26:49 77.89, 33.15 99.42 3.49 45
4 01/17/2022 09:18:20 -77.90,-159.41 80.60 01/17/2022 09:17:47 -77.90,-159.51 80.58 2.42 33
5 01/17/2022 10:09:06 77.92, 7.81 99.42 01/17/2022 10:08:48 77.93, 7.90 99.43 2.61 18
6 01/17/2022 10:59:52 -77.92, 175.10 80.59 01/17/2022 10:59:47 -77.91, 175.02 80.59 2.57 5
7 01/17/2022 11:50:38 77.94, -17.68 99.43 01/17/2022 11:50:48 77.94, -17.57 99.42 2.57 10
8 01/17/2022 12:41:24 -77.94, 149.62 80.58 01/17/2022 12:41:46 -77.95, 149.76 80.59 3.46 22
9 01/17/2022 13:32:09 77.92, -42.96 99.39 01/17/2022 13:32:48 77.94, -43.04 99.41 3.14 39
10 01/17/2022 14:22:55 -77.92, 124.34 80.61 01/17/2022 14:23:46 -77.96, 124.29 80.60 3.75 51
11 01/17/2022 15:13:41 77.94, -68.45 99.41 01/17/2022 15:14:48 77.95, -68.51 99.40 1.60 67
12 01/17/2022 16:04:32 -78.14, 97.79 80.33 01/17/2022 16:05:42 -78.11, 99.69 80.53 43.78 70



Historial Predications of SNOs between FY3D and NOAA-19
